sat.trackr.live / text

‹ back to catalog

STARLINK-5179

NORAD 54102 · 2022-136BD

PAYLOAD ACTIVE UNKNOWN

§ Identity

Operator
Country
US
Launch date
2022-10-20
Launch site
AFETR
Launch vehicle
Mass (kg)
RCS (m²)

Purposes: comms

External: N2YO · Heavens-Above · Gunter

§ Orbital elements

Epoch: 2026-05-24T20:46:16.451616Z

Period
95.44 min
Inclination
53.2148°
Eccentricity
0.0001276
Mean motion
15.08838579 rev/d
Perigee alt
538.9 km
Apogee alt
540.6 km
Semi-major
6,917.9 km
B*
4.1729e-5
RAAN
352.1708°
Arg perigee
90.6556°
Mean anomaly
269.4583°
Rev number
19,848

§ Raw data

STARLINK-51791 54102U 22136BD  26144.86546819  .00000376  00000+0  41729-4 0  99922 54102  53.2148 352.1708 0001276  90.6556 269.4583 15.08838579198481

JSON: /api/v1/satellites/54102 · /tle

For live sub-satellite position, see the globe view (requires WebGL).

§ Visibility from observer

Set your observer location to see the next 7 days of passes ≥ 10°. The values pass through the URL so the page stays shareable.

No JS? Fill the form by hand. The geolocation button needs JavaScript.